Year,Month,Day,Hour,Minute,Value (Times are PST for temperature in C)
2018,07,17,00,00,15.20
2018,07,17,00,01,15.20
2018,07,17,00,02,15.20
2018,07,17,00,03,15.20
2018,07,17,00,04,15.20
2018,07,17,00,05,15.20
2018,07,17,00,06,15.20
2018,07,17,00,07,15.10
2018,07,17,00,08,15.10
2018,07,17,00,09,15.10
2018,07,17,00,10,15.00
2018,07,17,00,11,15.00
2018,07,17,00,12,15.00
2018,07,17,00,13,15.00
2018,07,17,00,14,15.00
2018,07,17,00,15,15.00
2018,07,17,00,16,15.00
2018,07,17,00,17,15.00
2018,07,17,00,18,15.00
2018,07,17,00,19,15.00
2018,07,17,00,20,15.10
2018,07,17,00,21,15.10
2018,07,17,00,22,15.10
2018,07,17,00,23,15.10
2018,07,17,00,24,15.10
2018,07,17,00,25,15.10
2018,07,17,00,26,15.10
2018,07,17,00,27,15.10
2018,07,17,00,28,15.10
2018,07,17,00,29,15.10
2018,07,17,00,30,15.10
2018,07,17,00,31,15.10
2018,07,17,00,32,15.10
2018,07,17,00,33,15.10
2018,07,17,00,34,15.00
2018,07,17,00,35,15.00
2018,07,17,00,36,15.00
2018,07,17,00,37,15.00
2018,07,17,00,38,15.00
2018,07,17,00,39,14.90
2018,07,17,00,40,14.90
2018,07,17,00,41,14.80
2018,07,17,00,42,14.80
2018,07,17,00,43,14.80
2018,07,17,00,44,14.80
2018,07,17,00,45,14.80
2018,07,17,00,46,14.80
2018,07,17,00,47,14.70
2018,07,17,00,48,14.70
2018,07,17,00,49,14.70
2018,07,17,00,50,14.70
2018,07,17,00,51,14.70
2018,07,17,00,52,14.70
2018,07,17,00,53,14.70
2018,07,17,00,54,14.70
2018,07,17,00,55,14.70
2018,07,17,00,56,14.70
2018,07,17,00,57,14.70
2018,07,17,00,58,14.70
2018,07,17,00,59,14.70
2018,07,17,01,00,14.70
2018,07,17,01,01,14.70
2018,07,17,01,02,14.70
2018,07,17,01,03,14.70
2018,07,17,01,04,14.70
2018,07,17,01,05,14.70
2018,07,17,01,06,14.70
2018,07,17,01,07,14.70
2018,07,17,01,08,14.70
2018,07,17,01,09,14.70
2018,07,17,01,10,14.60
2018,07,17,01,11,14.60
2018,07,17,01,12,14.60
2018,07,17,01,13,14.60
2018,07,17,01,14,14.60
2018,07,17,01,15,14.50
2018,07,17,01,16,14.50
2018,07,17,01,17,14.50
2018,07,17,01,18,14.40
2018,07,17,01,19,14.40
2018,07,17,01,20,14.30
2018,07,17,01,21,14.30
2018,07,17,01,22,14.20
2018,07,17,01,23,14.10
2018,07,17,01,24,14.10
2018,07,17,01,25,14.10
2018,07,17,01,26,14.00
2018,07,17,01,27,14.00
2018,07,17,01,28,13.90
2018,07,17,01,29,13.90
2018,07,17,01,30,13.90
2018,07,17,01,31,13.90
2018,07,17,01,32,13.90
2018,07,17,01,33,13.90
2018,07,17,01,34,13.90
2018,07,17,01,35,13.90
2018,07,17,01,36,13.90
2018,07,17,01,37,13.80
2018,07,17,01,38,13.80
2018,07,17,01,39,13.80
2018,07,17,01,40,13.70
2018,07,17,01,41,13.70
2018,07,17,01,42,13.60
2018,07,17,01,43,13.60
2018,07,17,01,44,13.60
2018,07,17,01,45,13.60
2018,07,17,01,46,13.60
2018,07,17,01,47,13.60
2018,07,17,01,48,13.60
2018,07,17,01,49,13.60
2018,07,17,01,50,13.60
2018,07,17,01,51,13.60
2018,07,17,01,52,13.60
2018,07,17,01,53,13.60
2018,07,17,01,54,13.60
2018,07,17,01,55,13.60
2018,07,17,01,56,13.50
2018,07,17,01,57,13.50
2018,07,17,01,58,13.50
2018,07,17,01,59,13.50
2018,07,17,02,00,13.50
2018,07,17,02,01,13.50
2018,07,17,02,02,13.50
2018,07,17,02,03,13.50
2018,07,17,02,04,13.60
2018,07,17,02,05,13.60
2018,07,17,02,06,13.50
2018,07,17,02,07,13.50
2018,07,17,02,08,13.50
2018,07,17,02,09,13.40
2018,07,17,02,10,13.40
2018,07,17,02,11,13.40
2018,07,17,02,12,13.30
2018,07,17,02,13,13.30
2018,07,17,02,14,13.30
2018,07,17,02,15,13.30
2018,07,17,02,16,13.40
2018,07,17,02,17,13.40
2018,07,17,02,18,13.40
2018,07,17,02,19,13.40
2018,07,17,02,20,13.40
2018,07,17,02,21,13.40
2018,07,17,02,22,13.40
2018,07,17,02,23,13.40
2018,07,17,02,24,13.40
2018,07,17,02,25,13.40
2018,07,17,02,26,13.40
2018,07,17,02,27,13.40
2018,07,17,02,28,13.40
2018,07,17,02,29,13.40
2018,07,17,02,30,13.50
2018,07,17,02,31,13.50
2018,07,17,02,32,13.50
2018,07,17,02,33,13.50
2018,07,17,02,34,13.50
2018,07,17,02,35,13.50
2018,07,17,02,36,13.50
2018,07,17,02,37,13.50
2018,07,17,02,38,13.50
2018,07,17,02,39,13.40
2018,07,17,02,40,13.40
2018,07,17,02,41,13.30
2018,07,17,02,42,13.20
2018,07,17,02,43,13.10
2018,07,17,02,44,13.10
2018,07,17,02,45,13.00
2018,07,17,02,46,13.00
2018,07,17,02,47,12.90
2018,07,17,02,48,12.90
2018,07,17,02,49,12.90
2018,07,17,02,50,12.80
2018,07,17,02,51,12.80
2018,07,17,02,52,12.80
2018,07,17,02,53,12.70
2018,07,17,02,54,12.70
2018,07,17,02,55,12.70
2018,07,17,02,56,12.70
2018,07,17,02,57,12.70
2018,07,17,02,58,12.70
2018,07,17,02,59,12.70
2018,07,17,03,00,12.70
2018,07,17,03,01,12.70
2018,07,17,03,02,12.70
2018,07,17,03,03,12.70
2018,07,17,03,04,12.70
2018,07,17,03,05,12.70
2018,07,17,03,06,12.70
2018,07,17,03,07,12.70
2018,07,17,03,08,12.70
2018,07,17,03,09,12.70
2018,07,17,03,10,12.70
2018,07,17,03,11,12.70
2018,07,17,03,12,12.70
2018,07,17,03,13,12.70
2018,07,17,03,14,12.70
2018,07,17,03,15,12.70
2018,07,17,03,16,12.70
2018,07,17,03,17,12.60
2018,07,17,03,18,12.60
2018,07,17,03,19,12.60
2018,07,17,03,20,12.60
2018,07,17,03,21,12.60
2018,07,17,03,22,12.70
2018,07,17,03,23,12.70
2018,07,17,03,24,12.70
2018,07,17,03,25,12.70
2018,07,17,03,26,12.70
2018,07,17,03,27,12.70
2018,07,17,03,28,12.70
2018,07,17,03,29,12.70
2018,07,17,03,30,12.70
2018,07,17,03,31,12.70
2018,07,17,03,32,12.70
2018,07,17,03,33,12.70
2018,07,17,03,34,12.70
2018,07,17,03,35,12.70
2018,07,17,03,36,12.70
2018,07,17,03,37,12.70
2018,07,17,03,38,12.70
2018,07,17,03,39,12.80
2018,07,17,03,40,12.80
2018,07,17,03,41,12.80
2018,07,17,03,42,12.80
2018,07,17,03,43,12.80
2018,07,17,03,44,12.80
2018,07,17,03,45,12.70
2018,07,17,03,46,12.70
2018,07,17,03,47,12.70
2018,07,17,03,48,12.70
2018,07,17,03,49,12.70
2018,07,17,03,50,12.70
2018,07,17,03,51,12.70
2018,07,17,03,52,12.70
2018,07,17,03,53,12.70
2018,07,17,03,54,12.70
2018,07,17,03,55,12.70
2018,07,17,03,56,12.70
2018,07,17,03,57,12.70
2018,07,17,03,58,12.70
2018,07,17,03,59,12.70
2018,07,17,04,00,12.70
2018,07,17,04,01,12.70
2018,07,17,04,02,12.70
2018,07,17,04,03,12.70
2018,07,17,04,04,12.70
2018,07,17,04,05,12.70
2018,07,17,04,06,12.60
2018,07,17,04,07,12.60
2018,07,17,04,08,12.70
2018,07,17,04,09,12.70
2018,07,17,04,10,12.70
2018,07,17,04,11,12.60
2018,07,17,04,12,12.60
2018,07,17,04,13,12.60
2018,07,17,04,14,12.60
2018,07,17,04,15,12.60
2018,07,17,04,16,12.60
2018,07,17,04,17,12.60
2018,07,17,04,18,12.60
2018,07,17,04,19,12.60
2018,07,17,04,20,12.50
2018,07,17,04,21,12.60
2018,07,17,04,22,12.60
2018,07,17,04,23,12.50
2018,07,17,04,24,12.50
2018,07,17,04,25,12.50
2018,07,17,04,26,12.50
2018,07,17,04,27,12.50
2018,07,17,04,28,12.50
2018,07,17,04,29,12.50
2018,07,17,04,30,12.40
2018,07,17,04,31,12.40
2018,07,17,04,32,12.40
2018,07,17,04,33,12.40
2018,07,17,04,34,12.40
2018,07,17,04,35,12.40
2018,07,17,04,36,12.40
2018,07,17,04,37,12.40
2018,07,17,04,38,12.40
2018,07,17,04,39,12.40
2018,07,17,04,40,12.40
2018,07,17,04,41,12.40
2018,07,17,04,42,12.40
2018,07,17,04,43,12.40
2018,07,17,04,44,12.40
2018,07,17,04,45,12.40
2018,07,17,04,46,12.40
2018,07,17,04,47,12.40
2018,07,17,04,48,12.40
2018,07,17,04,49,12.40
2018,07,17,04,50,12.40
2018,07,17,04,51,12.40
2018,07,17,04,52,12.40
2018,07,17,04,53,12.40
2018,07,17,04,54,12.40
2018,07,17,04,55,12.40
2018,07,17,04,56,12.40
2018,07,17,04,57,12.40
2018,07,17,04,58,12.40
2018,07,17,04,59,12.40
2018,07,17,05,00,12.40
2018,07,17,05,01,12.40
2018,07,17,05,02,12.40
2018,07,17,05,03,12.40
2018,07,17,05,04,12.40
2018,07,17,05,05,12.40
2018,07,17,05,06,12.40
2018,07,17,05,07,12.40
2018,07,17,05,08,12.40
2018,07,17,05,09,12.40
2018,07,17,05,10,12.40
2018,07,17,05,11,12.40
2018,07,17,05,12,12.40
2018,07,17,05,13,12.40
2018,07,17,05,14,12.40
2018,07,17,05,15,12.40
2018,07,17,05,16,12.40
2018,07,17,05,17,12.40
2018,07,17,05,18,12.40
2018,07,17,05,19,12.40
2018,07,17,05,20,12.40
2018,07,17,05,21,12.40
2018,07,17,05,22,12.40
2018,07,17,05,23,12.40
2018,07,17,05,24,12.40
2018,07,17,05,25,12.40
2018,07,17,05,26,12.40
2018,07,17,05,27,12.40
2018,07,17,05,28,12.40
2018,07,17,05,29,12.40
2018,07,17,05,30,12.40
2018,07,17,05,31,12.40
2018,07,17,05,32,12.40
2018,07,17,05,33,12.40
2018,07,17,05,34,12.40
2018,07,17,05,35,12.40
2018,07,17,05,36,12.40
2018,07,17,05,37,12.40
2018,07,17,05,38,12.40
2018,07,17,05,39,12.40
2018,07,17,05,40,12.40
2018,07,17,05,41,12.40
2018,07,17,05,42,12.30
2018,07,17,05,43,12.30
2018,07,17,05,44,12.30
2018,07,17,05,45,12.30
2018,07,17,05,46,12.30
2018,07,17,05,47,12.30
2018,07,17,05,48,12.30
2018,07,17,05,49,12.40
2018,07,17,05,50,12.40
2018,07,17,05,51,12.40
2018,07,17,05,52,12.30
2018,07,17,05,53,12.30
2018,07,17,05,54,12.30
2018,07,17,05,55,12.30
2018,07,17,05,56,12.30
2018,07,17,05,57,12.30
2018,07,17,05,58,12.30
2018,07,17,05,59,12.30
2018,07,17,06,00,12.30
2018,07,17,06,01,12.30
2018,07,17,06,02,12.30
2018,07,17,06,03,12.40
2018,07,17,06,04,12.40
2018,07,17,06,05,12.40
2018,07,17,06,06,12.40
2018,07,17,06,07,12.40
2018,07,17,06,08,12.40
2018,07,17,06,09,12.50
2018,07,17,06,10,12.50
2018,07,17,06,11,12.50
2018,07,17,06,12,12.60
2018,07,17,06,13,12.60
2018,07,17,06,14,12.60
2018,07,17,06,15,12.60
2018,07,17,06,16,12.70
2018,07,17,06,17,12.70
2018,07,17,06,18,12.70
2018,07,17,06,19,12.80
2018,07,17,06,20,12.80
2018,07,17,06,21,12.80
2018,07,17,06,22,12.90
2018,07,17,06,23,12.90
2018,07,17,06,24,12.90
2018,07,17,06,25,13.00
2018,07,17,06,26,13.00
2018,07,17,06,27,13.10
2018,07,17,06,28,13.10
2018,07,17,06,29,13.10
2018,07,17,06,30,13.20
2018,07,17,06,31,13.20
2018,07,17,06,32,13.20
2018,07,17,06,33,13.20
2018,07,17,06,34,13.30
2018,07,17,06,35,13.30
2018,07,17,06,36,13.30
2018,07,17,06,37,13.40
2018,07,17,06,38,13.40
2018,07,17,06,39,13.40
2018,07,17,06,40,13.40
2018,07,17,06,41,13.50
2018,07,17,06,42,13.50
2018,07,17,06,43,13.50
2018,07,17,06,44,13.50
2018,07,17,06,45,13.60
2018,07,17,06,46,13.60
2018,07,17,06,47,13.60
2018,07,17,06,48,13.60
2018,07,17,06,49,13.60
2018,07,17,06,50,13.70
2018,07,17,06,51,13.70
2018,07,17,06,52,13.70
2018,07,17,06,53,13.70
2018,07,17,06,54,13.80
2018,07,17,06,55,13.80
2018,07,17,06,56,13.80
2018,07,17,06,57,13.80
2018,07,17,06,58,13.80
2018,07,17,06,59,13.90
2018,07,17,07,00,13.90
2018,07,17,07,01,13.90
2018,07,17,07,02,13.90
2018,07,17,07,03,13.90
2018,07,17,07,04,13.90
2018,07,17,07,05,14.00
2018,07,17,07,06,14.00
2018,07,17,07,07,14.00
2018,07,17,07,08,14.00
2018,07,17,07,09,14.10
2018,07,17,07,10,14.10
2018,07,17,07,11,14.10
2018,07,17,07,12,14.10
2018,07,17,07,13,14.20
2018,07,17,07,14,14.20
2018,07,17,07,15,14.20
2018,07,17,07,16,14.20
2018,07,17,07,17,14.20
2018,07,17,07,18,14.20
2018,07,17,07,19,14.30
2018,07,17,07,20,14.30
2018,07,17,07,21,14.30
2018,07,17,07,22,14.40
2018,07,17,07,23,14.40
2018,07,17,07,24,14.40
2018,07,17,07,25,14.50
2018,07,17,07,26,14.50
2018,07,17,07,27,14.60
2018,07,17,07,28,14.60
2018,07,17,07,29,14.60
2018,07,17,07,30,14.50
2018,07,17,07,31,14.50
2018,07,17,07,32,14.50
2018,07,17,07,33,14.40
2018,07,17,07,34,14.40
2018,07,17,07,35,14.40
2018,07,17,07,36,14.50
2018,07,17,07,37,14.50
2018,07,17,07,38,14.50
2018,07,17,07,39,14.60
2018,07,17,07,40,14.60
2018,07,17,07,41,14.60
2018,07,17,07,42,14.60
2018,07,17,07,43,14.70
2018,07,17,07,44,14.70
2018,07,17,07,45,14.70
2018,07,17,07,46,14.70
2018,07,17,07,47,14.70
2018,07,17,07,48,14.70
2018,07,17,07,49,14.80
2018,07,17,07,50,14.80
2018,07,17,07,51,14.80
2018,07,17,07,52,14.80
2018,07,17,07,53,14.80
2018,07,17,07,54,14.80
2018,07,17,07,55,14.80
2018,07,17,07,56,14.80
2018,07,17,07,57,14.70
2018,07,17,07,58,14.70
2018,07,17,07,59,14.70
2018,07,17,08,00,14.70
2018,07,17,08,01,14.70
2018,07,17,08,02,14.60
2018,07,17,08,03,14.60
2018,07,17,08,04,14.60
2018,07,17,08,05,14.50
2018,07,17,08,06,14.50
2018,07,17,08,07,14.50
2018,07,17,08,08,14.40
2018,07,17,08,09,14.40
2018,07,17,08,10,14.40
2018,07,17,08,11,14.40
2018,07,17,08,12,14.40
2018,07,17,08,13,14.30
2018,07,17,08,14,14.30
2018,07,17,08,15,14.30
2018,07,17,08,16,14.30
2018,07,17,08,17,14.30
2018,07,17,08,18,14.30
2018,07,17,08,19,14.30
2018,07,17,08,20,14.20
2018,07,17,08,21,14.20
2018,07,17,08,22,14.20
2018,07,17,08,23,14.20
2018,07,17,08,24,14.20
2018,07,17,08,25,14.20
2018,07,17,08,26,14.20
2018,07,17,08,27,14.10
2018,07,17,08,28,14.10
2018,07,17,08,29,14.10
2018,07,17,08,30,14.20
2018,07,17,08,31,14.20
2018,07,17,08,32,14.20
2018,07,17,08,33,14.20
2018,07,17,08,34,14.20
2018,07,17,08,35,14.20
2018,07,17,08,36,14.20
2018,07,17,08,37,14.20
2018,07,17,08,38,14.20
2018,07,17,08,39,14.20
2018,07,17,08,40,14.20
2018,07,17,08,41,14.20
2018,07,17,08,42,14.10
2018,07,17,08,43,14.10
2018,07,17,08,44,14.10
2018,07,17,08,45,14.00
2018,07,17,08,46,14.00
2018,07,17,08,47,13.90
2018,07,17,08,48,13.90
2018,07,17,08,49,13.90
2018,07,17,08,50,13.90
2018,07,17,08,51,13.90
2018,07,17,08,52,13.80
2018,07,17,08,53,13.80
2018,07,17,08,54,13.80
2018,07,17,08,55,13.80
2018,07,17,08,56,13.80
2018,07,17,08,57,13.80
2018,07,17,08,58,13.80
2018,07,17,08,59,13.90
2018,07,17,09,00,13.90
2018,07,17,09,01,13.90
2018,07,17,09,02,13.90
2018,07,17,09,03,13.90
2018,07,17,09,04,13.90
2018,07,17,09,05,14.00
2018,07,17,09,06,14.00
2018,07,17,09,07,14.00
2018,07,17,09,08,14.00
2018,07,17,09,09,14.00
2018,07,17,09,10,14.00
2018,07,17,09,11,14.00
2018,07,17,09,12,14.00
2018,07,17,09,13,14.00
2018,07,17,09,14,14.10
2018,07,17,09,15,14.10
2018,07,17,09,16,14.10
2018,07,17,09,17,14.10
2018,07,17,09,18,14.10
2018,07,17,09,19,14.10
2018,07,17,09,20,14.10
2018,07,17,09,21,14.20
2018,07,17,09,22,14.20
2018,07,17,09,23,14.20
2018,07,17,09,24,14.20
2018,07,17,09,25,14.20
2018,07,17,09,26,14.20
2018,07,17,09,27,14.20
2018,07,17,09,28,14.20
2018,07,17,09,29,14.20
2018,07,17,09,30,14.20
2018,07,17,09,31,14.30
2018,07,17,09,32,14.30
2018,07,17,09,33,14.30
2018,07,17,09,34,14.40
2018,07,17,09,35,14.40
2018,07,17,09,36,14.40
2018,07,17,09,37,14.40
2018,07,17,09,38,14.40
2018,07,17,09,39,14.40
2018,07,17,09,40,14.40
2018,07,17,09,41,14.50
2018,07,17,09,42,14.50
2018,07,17,09,43,14.50
2018,07,17,09,44,14.60
2018,07,17,09,45,14.60
2018,07,17,09,46,14.60
2018,07,17,09,47,14.60
2018,07,17,09,48,14.60
2018,07,17,09,49,14.60
2018,07,17,09,50,14.50
2018,07,17,09,51,14.50
2018,07,17,09,52,14.40
2018,07,17,09,53,14.40
2018,07,17,09,54,14.40
2018,07,17,09,55,14.40
2018,07,17,09,56,14.40
2018,07,17,09,57,14.40
2018,07,17,09,58,14.50
2018,07,17,09,59,14.50
2018,07,17,10,00,14.50
2018,07,17,10,01,14.50
2018,07,17,10,02,14.50
2018,07,17,10,03,14.60
2018,07,17,10,04,14.60
2018,07,17,10,05,14.50
2018,07,17,10,06,14.50
2018,07,17,10,07,14.50
2018,07,17,10,08,14.50
2018,07,17,10,09,14.50
2018,07,17,10,10,14.50
2018,07,17,10,11,14.50
2018,07,17,10,12,14.60
2018,07,17,10,13,14.60
2018,07,17,10,14,14.60
2018,07,17,10,15,14.60
2018,07,17,10,16,14.60
2018,07,17,10,17,14.60
2018,07,17,10,18,14.70
2018,07,17,10,19,14.70
2018,07,17,10,20,14.70
2018,07,17,10,21,14.70
2018,07,17,10,22,14.60
2018,07,17,10,23,14.60
2018,07,17,10,24,14.60
2018,07,17,10,25,14.50
2018,07,17,10,26,14.40
2018,07,17,10,27,14.30
2018,07,17,10,28,14.20
2018,07,17,10,29,14.10
2018,07,17,10,30,13.90
2018,07,17,10,31,13.80
2018,07,17,10,32,13.70
2018,07,17,10,33,13.60
2018,07,17,10,34,13.50
2018,07,17,10,35,13.40
2018,07,17,10,36,13.40
2018,07,17,10,37,13.40
2018,07,17,10,38,13.30
2018,07,17,10,39,13.30
2018,07,17,10,40,13.20
2018,07,17,10,41,13.20
2018,07,17,10,42,13.10
2018,07,17,10,43,13.10
2018,07,17,10,44,13.00
2018,07,17,10,45,12.90
2018,07,17,10,46,12.90
2018,07,17,10,47,12.80
2018,07,17,10,48,12.80
2018,07,17,10,49,12.70
2018,07,17,10,50,12.70
2018,07,17,10,51,12.70
2018,07,17,10,52,12.70
2018,07,17,10,53,12.70
2018,07,17,10,54,12.70
2018,07,17,10,55,12.70
2018,07,17,10,56,12.70
2018,07,17,10,57,12.60
2018,07,17,10,58,12.60
2018,07,17,10,59,12.60
2018,07,17,11,00,12.60
2018,07,17,11,01,12.60
2018,07,17,11,02,12.60
2018,07,17,11,03,12.60
2018,07,17,11,04,12.60
2018,07,17,11,05,12.60
2018,07,17,11,06,12.60
2018,07,17,11,07,12.60
2018,07,17,11,08,12.60
2018,07,17,11,09,12.60
2018,07,17,11,10,12.70
2018,07,17,11,11,12.70
2018,07,17,11,12,12.70
2018,07,17,11,13,12.70
2018,07,17,11,14,12.80
2018,07,17,11,15,12.80
2018,07,17,11,16,12.80
2018,07,17,11,17,12.90
2018,07,17,11,18,12.90
2018,07,17,11,19,12.90
2018,07,17,11,20,13.00
2018,07,17,11,21,13.00
2018,07,17,11,22,13.00
2018,07,17,11,23,13.00
2018,07,17,11,24,13.00
2018,07,17,11,25,13.00
2018,07,17,11,26,13.00
2018,07,17,11,27,12.90
2018,07,17,11,28,12.80
2018,07,17,11,29,12.70
2018,07,17,11,30,12.70
2018,07,17,11,31,12.60
2018,07,17,11,32,12.60
2018,07,17,11,33,12.50
2018,07,17,11,34,12.50
2018,07,17,11,35,12.50
2018,07,17,11,36,12.50
2018,07,17,11,37,12.50
2018,07,17,11,38,12.50
2018,07,17,11,39,12.50
2018,07,17,11,40,12.50
2018,07,17,11,41,12.50
2018,07,17,11,42,12.50
2018,07,17,11,43,12.50
2018,07,17,11,44,12.50
2018,07,17,11,45,12.50
2018,07,17,11,46,12.60
2018,07,17,11,47,12.60
2018,07,17,11,48,12.60
2018,07,17,11,49,12.70
2018,07,17,11,50,12.70
2018,07,17,11,51,12.70
2018,07,17,11,52,12.60
2018,07,17,11,53,12.50
2018,07,17,11,54,12.40
2018,07,17,11,55,12.40
2018,07,17,11,56,12.30
2018,07,17,11,57,12.30
2018,07,17,11,58,12.30
2018,07,17,11,59,12.30
2018,07,17,12,00,12.20
2018,07,17,12,01,12.20
2018,07,17,12,02,12.20
2018,07,17,12,03,12.20
2018,07,17,12,04,12.20
2018,07,17,12,05,12.20
2018,07,17,12,06,12.20
2018,07,17,12,07,12.20
2018,07,17,12,08,12.20
2018,07,17,12,09,12.20
2018,07,17,12,10,12.20
2018,07,17,12,11,12.20
2018,07,17,12,12,12.30
2018,07,17,12,13,12.30
2018,07,17,12,14,12.30
2018,07,17,12,15,12.30
2018,07,17,12,16,12.30
2018,07,17,12,17,12.30
2018,07,17,12,18,12.30
2018,07,17,12,19,12.40
2018,07,17,12,20,12.40
2018,07,17,12,21,12.40
2018,07,17,12,22,12.40
2018,07,17,12,23,12.40
2018,07,17,12,24,12.50
2018,07,17,12,25,12.50
2018,07,17,12,26,12.50
2018,07,17,12,27,12.50
2018,07,17,12,28,12.50
2018,07,17,12,29,12.50
2018,07,17,12,30,12.60
2018,07,17,12,31,12.60
2018,07,17,12,32,12.60
2018,07,17,12,33,12.60
2018,07,17,12,34,12.60
2018,07,17,12,35,12.60
2018,07,17,12,36,12.70
2018,07,17,12,37,12.70
2018,07,17,12,38,12.60
2018,07,17,12,39,12.60
2018,07,17,12,40,12.60
2018,07,17,12,41,12.70
2018,07,17,12,42,12.70
2018,07,17,12,43,12.60
2018,07,17,12,44,12.70
2018,07,17,12,45,12.70
2018,07,17,12,46,12.70
2018,07,17,12,47,12.70
2018,07,17,12,48,12.70
2018,07,17,12,49,12.70
2018,07,17,12,50,12.70
2018,07,17,12,51,12.70
2018,07,17,12,52,12.70
2018,07,17,12,53,12.70
2018,07,17,12,54,12.70
2018,07,17,12,55,12.70
2018,07,17,12,56,12.70
2018,07,17,12,57,12.70
2018,07,17,12,58,12.70
2018,07,17,12,59,12.70
2018,07,17,13,00,12.70
2018,07,17,13,01,12.70
2018,07,17,13,02,12.70
2018,07,17,13,03,12.70
2018,07,17,13,04,12.80
2018,07,17,13,05,12.80
2018,07,17,13,06,12.80
2018,07,17,13,07,12.80
2018,07,17,13,08,12.80
2018,07,17,13,09,12.90
2018,07,17,13,10,12.90
2018,07,17,13,11,13.00
2018,07,17,13,12,13.00
2018,07,17,13,13,13.10
2018,07,17,13,14,13.10
2018,07,17,13,15,13.10
2018,07,17,13,16,13.20
2018,07,17,13,17,13.20
2018,07,17,13,18,13.20
2018,07,17,13,19,13.30
2018,07,17,13,20,13.30
2018,07,17,13,21,13.40
2018,07,17,13,22,13.50
2018,07,17,13,23,13.60
2018,07,17,13,24,13.70
2018,07,17,13,25,13.70
2018,07,17,13,26,13.70
2018,07,17,13,27,13.80
2018,07,17,13,28,13.90
2018,07,17,13,29,14.00
2018,07,17,13,30,14.10
2018,07,17,13,31,14.20
2018,07,17,13,32,14.40
2018,07,17,13,33,14.60
2018,07,17,13,34,14.80
2018,07,17,13,35,14.90
2018,07,17,13,36,15.20
2018,07,17,13,37,15.30
2018,07,17,13,38,15.50
2018,07,17,13,39,15.60
2018,07,17,13,40,15.80
2018,07,17,13,41,16.00
2018,07,17,13,42,16.40
2018,07,17,13,43,16.90
2018,07,17,13,44,17.60
2018,07,17,13,45,18.10
2018,07,17,13,46,18.70
2018,07,17,13,47,19.20
2018,07,17,13,48,19.60
2018,07,17,13,49,19.90
2018,07,17,13,50,20.20
2018,07,17,13,51,20.40
2018,07,17,13,52,20.60
2018,07,17,13,53,20.80
2018,07,17,13,54,20.90
2018,07,17,13,55,21.10
2018,07,17,13,56,21.20
2018,07,17,13,57,21.20
2018,07,17,13,58,21.30
2018,07,17,13,59,21.30
2018,07,17,14,00,21.30
2018,07,17,14,01,21.30
2018,07,17,14,02,21.40
2018,07,17,14,03,21.50
2018,07,17,14,04,21.50
2018,07,17,14,05,21.60
2018,07,17,14,06,21.70
2018,07,17,14,07,21.80
2018,07,17,14,08,21.90
2018,07,17,14,09,22.00
2018,07,17,14,10,22.10
2018,07,17,14,11,22.20
2018,07,17,14,12,22.20
2018,07,17,14,13,22.20
2018,07,17,14,14,22.10
2018,07,17,14,15,22.10
2018,07,17,14,16,22.00
2018,07,17,14,17,22.00
2018,07,17,14,18,21.90
2018,07,17,14,19,21.90
2018,07,17,14,20,21.90
2018,07,17,14,21,21.90
2018,07,17,14,22,21.90
2018,07,17,14,23,22.00
2018,07,17,14,24,22.10
2018,07,17,14,25,22.20
2018,07,17,14,26,22.20
2018,07,17,14,27,22.20
2018,07,17,14,28,22.20
2018,07,17,14,29,22.20
2018,07,17,14,30,22.20
2018,07,17,14,31,22.20
2018,07,17,14,32,22.20
2018,07,17,14,33,22.20
2018,07,17,14,34,22.20
2018,07,17,14,35,22.10
2018,07,17,14,36,22.10
2018,07,17,14,37,22.00
2018,07,17,14,38,21.90
2018,07,17,14,39,21.80
2018,07,17,14,40,21.80
2018,07,17,14,41,21.70
2018,07,17,14,42,21.70
2018,07,17,14,43,21.60
2018,07,17,14,44,21.60
2018,07,17,14,45,21.60
2018,07,17,14,46,21.60
2018,07,17,14,47,21.60
2018,07,17,14,48,21.60
2018,07,17,14,49,21.60
2018,07,17,14,50,21.60
2018,07,17,14,51,21.60
2018,07,17,14,52,21.60
2018,07,17,14,53,21.70
2018,07,17,14,54,21.70
2018,07,17,14,55,21.80
2018,07,17,14,56,21.80
2018,07,17,14,57,21.90
2018,07,17,14,58,21.90
2018,07,17,14,59,22.00
2018,07,17,15,00,22.10
2018,07,17,15,01,22.20
2018,07,17,15,02,22.30
2018,07,17,15,03,22.50
2018,07,17,15,04,22.60
2018,07,17,15,05,22.80
2018,07,17,15,06,22.90
2018,07,17,15,07,23.00
2018,07,17,15,08,23.10
2018,07,17,15,09,23.20
2018,07,17,15,10,23.30
2018,07,17,15,11,23.30
2018,07,17,15,12,23.30
2018,07,17,15,13,23.30
2018,07,17,15,14,23.40
2018,07,17,15,15,23.40
2018,07,17,15,16,23.30
2018,07,17,15,17,23.30
2018,07,17,15,18,23.20
2018,07,17,15,19,23.20
2018,07,17,15,20,23.10
2018,07,17,15,21,23.10
2018,07,17,15,22,23.00
2018,07,17,15,23,23.00
2018,07,17,15,24,22.90
2018,07,17,15,25,22.90
2018,07,17,15,26,22.90
2018,07,17,15,27,22.90
2018,07,17,15,28,22.90
2018,07,17,15,29,22.90
2018,07,17,15,30,22.90
2018,07,17,15,31,22.90
2018,07,17,15,32,22.90
2018,07,17,15,33,23.00
2018,07,17,15,34,23.00
2018,07,17,15,35,23.00
2018,07,17,15,36,23.10
2018,07,17,15,37,23.10
2018,07,17,15,38,23.10
2018,07,17,15,39,23.10
2018,07,17,15,40,23.10
2018,07,17,15,41,23.10
2018,07,17,15,42,23.10
2018,07,17,15,43,23.00
2018,07,17,15,44,23.00
2018,07,17,15,45,23.00
2018,07,17,15,46,23.00
2018,07,17,15,47,23.10
2018,07,17,15,48,23.10
2018,07,17,15,49,23.20
2018,07,17,15,50,23.30
2018,07,17,15,51,23.40
2018,07,17,15,52,23.60
2018,07,17,15,53,23.70
2018,07,17,15,54,23.80
2018,07,17,15,55,23.90
2018,07,17,15,56,24.00
2018,07,17,15,57,24.10
2018,07,17,15,58,24.10
2018,07,17,15,59,24.20
2018,07,17,16,00,24.20
2018,07,17,16,01,24.10
2018,07,17,16,02,24.10
2018,07,17,16,03,24.10
2018,07,17,16,04,24.00
2018,07,17,16,05,24.00
2018,07,17,16,06,24.00
2018,07,17,16,07,24.00
2018,07,17,16,08,23.90
2018,07,17,16,09,23.90
2018,07,17,16,10,23.90
2018,07,17,16,11,23.90
2018,07,17,16,12,23.90
2018,07,17,16,13,23.90
2018,07,17,16,14,23.90
2018,07,17,16,15,23.90
2018,07,17,16,16,23.90
2018,07,17,16,17,24.00
2018,07,17,16,18,24.00
2018,07,17,16,19,24.00
2018,07,17,16,20,24.00
2018,07,17,16,21,24.10
2018,07,17,16,22,24.10
2018,07,17,16,23,24.10
2018,07,17,16,24,24.10
2018,07,17,16,25,24.10
2018,07,17,16,26,24.10
2018,07,17,16,27,24.30
2018,07,17,16,28,24.30
2018,07,17,16,29,24.30
2018,07,17,16,30,24.30
2018,07,17,16,31,24.40
2018,07,17,16,32,24.50
2018,07,17,16,33,24.50
2018,07,17,16,34,24.60
2018,07,17,16,35,24.70
2018,07,17,16,36,24.70
2018,07,17,16,37,24.80
2018,07,17,16,38,24.90
2018,07,17,16,39,24.90
2018,07,17,16,40,25.00
2018,07,17,16,41,25.10
2018,07,17,16,42,25.10
2018,07,17,16,43,25.20
2018,07,17,16,44,25.30
2018,07,17,16,45,25.40
2018,07,17,16,46,25.60
2018,07,17,16,47,25.70
2018,07,17,16,48,25.80
2018,07,17,16,49,25.90
2018,07,17,16,50,25.90
2018,07,17,16,51,26.00
2018,07,17,16,52,26.10
2018,07,17,16,53,26.10
2018,07,17,16,54,26.10
2018,07,17,16,55,26.10
2018,07,17,16,56,26.10
2018,07,17,16,57,26.10
2018,07,17,16,58,26.10
2018,07,17,16,59,26.10
2018,07,17,17,00,26.10
2018,07,17,17,01,26.20
2018,07,17,17,02,26.20
2018,07,17,17,03,26.20
2018,07,17,17,04,26.10
2018,07,17,17,05,26.10
2018,07,17,17,06,26.10
2018,07,17,17,07,26.10
2018,07,17,17,08,26.20
2018,07,17,17,09,26.20
2018,07,17,17,10,26.20
2018,07,17,17,11,26.20
2018,07,17,17,12,26.10
2018,07,17,17,13,26.10
2018,07,17,17,14,26.10
2018,07,17,17,15,26.10
2018,07,17,17,16,26.10
2018,07,17,17,17,26.10
2018,07,17,17,18,26.10
2018,07,17,17,19,26.10